GFSGL_925_rhum_153.txt.gz
RH
47 50 55 58 57 58 58 57 59 59 62 56 76 87 87 88 87 89 90 90 88 86 89 91 97 93 91 90 90 92 91 91 99 100 99 99 99 98 91 83 73 58 50
43 50 55 58 59 59 58 56 56 54 56 48 62 83 88 88 86 84 84 82 85 83 83 87 90 87 90 86 86 83 81 87 94 99 100 99 98 89 74 61 56 50 44
42 47 53 57 61 61 61 59 57 53 52 46 53 64 84 88 86 83 77 78 85 82 81 83 83 80 76 69 70 68 71 78 90 99 100 100 87 67 57 53 54 44 50
37 42 48 53 59 61 62 61 58 54 51 48 45 54 65 83 83 79 75 74 80 80 72 69 65 63 63 59 52 44 53 63 77 87 87 76 66 70 57 55 51 54 70
38 42 42 43 50 60 64 63 61 59 54 50 44 47 51 65 75 70 70 70 75 78 69 62 50 44 34 41 45 42 38 40 49 56 67 72 69 65 64 64 63 67 77
35 38 39 42 46 54 60 61 61 60 56 52 44 45 48 48 54 58 59 51 71 74 65 62 57 54 52 34 37 53 48 52 54 55 65 68 71 68 67 72 69 64 73
34 35 36 36 45 50 54 60 62 61 58 55 47 44 43 40 42 47 51 48 64 70 67 64 59 51 46 48 56 42 51 58 53 54 56 63 66 66 66 68 62 63 62
36 36 37 39 40 42 53 58 60 60 59 56 50 44 43 38 37 42 52 51 48 64 65 62 58 53 48 47 54 54 49 44 47 50 52 56 62 66 61 53 55 55 67
38 38 38 41 42 43 49 53 57 61 59 57 53 47 45 41 41 42 50 54 44 54 56 57 58 57 54 54 54 56 61 51 48 44 49 53 53 50 45 47 51 54 74
39 37 38 42 45 46 47 51 56 60 59 58 56 52 47 44 43 45 50 56 52 50 56 59 58 58 58 60 48 56 61 60 60 57 58 60 59 65 58 51 56 60 78
40 42 42 41 44 47 54 58 63 65 65 63 60 57 54 49 46 46 49 53 56 50 55 57 58 60 60 66 59 56 54 53 68 67 61 65 68 68 66 61 58 63 68
45 46 44 43 45 55 58 57 61 66 71 69 67 64 60 56 54 52 52 54 54 56 49 47 50 53 61 64 76 61 63 67 73 69 65 69 73 74 74 75 66 63 71
51 50 47 48 52 49 50 52 60 66 74 76 74 72 68 64 61 58 57 56 60 65 55 46 48 52 55 67 91 78 84 79 70 72 70 70 72 76 82 80 70 69 65
55 53 49 48 48 49 54 60 66 70 74 77 76 74 71 68 64 61 58 58 65 80 73 61 55 55 58 65 79 95 94 86 78 74 75 75 79 85 87 84 91 85 71
57 53 51 51 53 54 56 60 66 67 70 73 75 76 76 76 69 66 60 56 60 66 88 88 66 66 80 86 90 88 92 94 90 88 85 81 86 89 87 90 96 95 94
57 57 59 61 64 66 68 68 63 70 73 76 77 82 85 82 79 70 64 59 57 60 97 94 83 81 87 89 95 96 92 94 90 90 90 86 89 89 88 92 94 93 92
65 66 68 69 71 74 78 83 89 75 72 76 77 83 79 80 81 82 82 65 58 78 91 99 91 88 87 87 88 92 95 88 81 85 90 87 88 88 94 91 93 91 91
68 70 75 77 79 82 84 85 87 94 97 94 85 90 83 84 84 85 86 85 81 87 91 96 97 90 89 89 91 91 94 89 85 86 87 86 91 90 91 92 94 94 94
77 79 80 80 80 83 87 89 90 94 97 96 94 91 90 92 90 89 93 97 87 87 91 98 100 99 95 94 89 92 90 89 86 86 87 90 90 92 92 91 92 96 94
82 85 86 83 84 83 85 91 94 95 99 100 99 99 96 96 97 94 94 99 98 89 86 89 99 100 100 99 97 98 99 99 99 98 96 97 96 96 92 90 94 96 93
96 93 84 82 79 83 85 88 91 98 100 100 100 99 100 100 100 100 100 98 100 99 94 90 95 100 100 100 99 100 100 100 99 98 98 98 97 97 91 89 94 95 96
95 95 95 86 84 85 86 88 94 98 100 100 99 98 100 99 97 97 98 100 100 100 99 100 98 100 100 99 99 100 99 99 98 98 98 98 97 96 95 95 96 97 96
89 100 95 93 86 86 87 86 90 96 97 97 98 99 99 97 97 96 97 95 100 100 100 100 100 100 100 100 100 100 99 98 98 98 98 97 97 97 96 95 98 98 97
81 94 92 97 94 90 89 89 88 91 93 95 98 99 98 96 97 99 99 99 99 99 100 100 100 100 100 99 100 100 99 99 99 99 98 98 97 97 96 96 95 95 94
82 87 95 96 94 94 95 95 92 90 92 99 100 99 100 98 97 99 97 97 100 98 99 100 100 99 99 100 99 99 99 99 99 99 98 98 97 96 95 95 95 96 96
81 87 90 95 100 99 99 99 98 88 88 93 98 98 100 100 99 98 98 97 96 99 98 99 100 100 100 100 99 99 99 99 99 98 98 97 96 93 95 97 96 95 88

GFSGL_925_rhum_156.txt.gz
RH
48 48 53 52 53 57 60 59 58 57 57 56 55 54 82 88 88 86 87 86 87 87 86 87 87 93 89 88 89 92 93 95 99 100 99 100 100 95 87 76 66 56 55
29 34 43 51 52 57 60 60 59 59 58 57 54 49 57 85 87 83 82 82 80 83 79 78 82 86 86 88 81 82 84 83 98 99 100 99 97 89 74 62 58 53 52
30 29 34 40 46 53 57 60 62 61 59 58 56 51 48 64 87 85 84 78 76 80 76 74 74 76 78 73 69 66 69 78 89 98 99 100 88 71 60 60 49 51 63
29 31 35 37 41 46 51 58 62 63 62 60 55 50 41 46 64 84 84 78 75 74 73 69 62 61 61 60 59 48 47 62 78 95 93 84 73 66 54 50 50 60 69
30 32 32 34 37 41 46 49 58 65 64 63 60 54 46 42 48 58 76 76 74 70 73 70 58 48 38 33 45 42 40 41 50 64 74 73 70 62 58 59 60 68 66
34 34 34 38 38 38 40 43 52 57 62 66 65 60 54 44 41 46 60 63 63 61 68 69 60 52 50 37 31 52 44 46 49 56 65 65 64 63 61 63 62 59 64
37 35 36 38 37 38 40 44 47 53 59 63 64 63 58 51 43 44 49 60 59 52 65 70 65 60 54 47 52 49 51 56 49 46 49 54 58 53 57 62 55 54 55
42 41 41 40 39 39 45 49 48 48 54 60 62 63 61 57 48 44 46 50 57 56 56 69 68 61 53 46 50 53 47 42 45 49 49 45 52 52 56 50 48 53 59
46 45 44 43 46 45 45 46 48 53 55 56 58 62 62 58 54 48 47 48 51 56 52 61 68 64 56 51 53 54 57 49 44 48 49 51 54 53 46 43 50 56 71
49 48 47 49 48 45 43 46 52 59 61 62 64 63 62 60 58 53 49 50 53 56 57 51 62 62 58 57 68 54 61 56 56 59 58 66 58 59 50 47 47 48 69
52 52 51 50 49 48 50 53 60 63 67 69 70 67 66 64 61 59 56 56 54 58 56 53 49 59 60 58 73 62 50 47 62 62 61 63 63 62 60 58 56 55 57
58 58 56 54 52 52 60 60 56 61 68 71 74 72 69 67 66 64 61 60 59 62 56 52 48 44 59 62 72 75 60 63 60 73 70 67 67 67 68 71 68 58 56
62 60 58 56 51 49 51 51 56 62 70 72 76 78 74 70 70 68 66 65 67 78 66 60 55 51 48 63 67 78 78 83 70 79 74 66 63 65 76 82 78 65 63
64 59 56 55 53 53 54 57 62 66 72 76 78 79 75 73 72 72 72 69 64 76 90 83 72 62 52 57 72 90 93 83 83 76 72 66 71 79 83 85 83 83 75
60 60 60 61 63 64 63 64 66 65 70 75 76 79 80 79 78 78 78 78 73 64 82 98 94 80 73 77 84 80 93 96 90 86 77 78 80 84 88 87 88 94 87
67 66 68 71 71 72 74 71 63 65 67 72 75 81 82 86 85 87 86 84 82 76 88 100 98 89 84 86 94 93 90 96 100 97 92 87 84 87 89 90 90 96 94
68 70 75 76 77 80 81 85 91 73 77 74 76 78 80 85 90 94 95 96 96 92 91 99 99 93 87 87 90 94 95 95 98 97 97 91 89 87 95 90 91 95 95
74 80 84 86 86 85 85 87 91 97 100 94 84 88 88 87 87 90 91 96 100 99 100 100 100 100 96 91 92 95 95 96 98 99 97 92 93 91 94 94 93 95 94
80 81 82 82 82 87 89 87 90 92 93 94 91 91 92 95 94 92 92 99 100 99 96 100 100 100 100 99 99 99 99 99 98 98 96 93 95 90 93 96 95 95 96
82 89 92 89 93 90 84 87 87 89 94 99 100 100 98 98 98 98 98 99 99 100 98 91 96 100 100 100 99 99 99 99 99 99 98 98 98 94 97 97 96 91 95
76 92 86 98 97 99 99 97 90 92 98 100 100 97 98 100 100 100 100 100 100 99 100 100 99 99 100 100 99 99 99 100 100 99 98 98 98 98 97 97 96 96 93
75 86 94 94 97 99 100 94 91 92 91 96 97 97 97 100 100 97 97 96 97 100 100 100 100 100 100 100 99 99 100 99 99 98 98 98 98 97 97 96 96 96 95
82 87 90 91 96 100 100 99 96 94 92 92 93 98 98 99 100 99 99 99 100 99 100 100 100 100 100 100 100 100 100 99 98 98 98 98 97 97 97 96 96 96 98
76 84 85 95 98 100 100 100 97 96 94 91 92 94 99 99 99 100 100 99 97 98 99 100 100 100 100 100 99 99 99 99 99 99 99 98 97 98 97 96 96 96 95
74 82 91 93 99 100 97 96 96 99 99 98 93 90 93 99 98 99 99 100 99 99 100 100 99 98 100 100 99 99 99 99 99 99 99 98 98 97 96 96 96 96 97
83 81 86 90 94 95 100 100 100 100 100 99 98 93 93 98 98 99 99 99 99 99 99 99 99 99 96 100 99 100 99 99 99 99 98 98 98 97 97 96 96 96 95

GFSGL_925_rhum_162.txt.gz
RH
33 33 33 33 35 39 43 46 51 54 58 63 64 64 64 59 50 46 74 87 88 88 87 88 84 80 74 84 91 94 91 96 98 92 96 96 97 93 91 84 74 64 68
34 34 34 33 34 35 38 42 47 50 55 60 64 67 66 63 58 49 43 69 88 86 86 86 84 80 71 78 84 90 87 86 95 98 99 96 92 87 86 78 65 54 61
39 38 37 36 36 35 36 38 42 42 42 50 60 67 67 66 64 58 49 44 64 86 88 85 82 81 69 68 72 79 77 72 76 98 99 95 88 86 76 68 61 52 51
43 43 42 41 41 40 38 38 40 39 38 40 47 58 66 68 68 66 61 52 50 60 79 85 81 79 70 65 61 64 68 60 58 78 89 97 91 87 78 65 54 48 50
46 44 44 45 43 42 42 42 42 40 41 45 50 56 61 68 69 69 67 61 54 53 61 74 78 75 66 63 52 41 44 51 48 54 74 87 84 79 75 61 54 49 55
47 47 47 46 46 45 44 46 47 46 45 47 52 57 58 62 64 67 69 68 61 54 54 55 61 65 61 65 55 48 38 42 49 55 57 64 58 56 54 54 55 54 56
52 51 51 52 53 51 50 49 48 47 47 46 49 54 56 56 57 62 68 72 68 62 54 53 55 57 56 67 64 66 64 70 76 58 56 52 51 44 49 54 58 54 47
55 56 57 58 58 57 57 55 53 52 54 56 56 59 61 58 62 61 66 73 72 68 63 55 52 52 54 63 69 66 59 54 48 47 51 50 54 50 50 47 49 50 49
58 58 58 61 61 59 59 59 56 60 64 67 67 66 68 64 68 68 70 72 71 67 66 61 56 54 53 58 72 73 65 54 49 46 43 45 46 51 51 54 53 53 53
62 62 61 62 62 60 59 59 57 58 58 59 56 59 63 61 62 66 72 73 73 70 66 64 61 57 55 57 64 73 73 59 52 55 54 55 63 64 59 51 46 48 50
63 62 60 60 60 58 58 57 58 58 59 59 60 61 63 62 60 64 68 74 75 74 72 70 67 64 60 58 60 65 66 60 56 56 56 63 67 61 57 50 46 47 50
61 61 60 61 62 63 64 61 61 62 64 64 66 61 62 64 66 67 67 70 73 85 79 74 74 73 69 64 70 65 62 73 67 65 67 72 71 65 57 58 58 58 57
59 59 59 59 61 66 68 68 68 67 69 70 74 75 70 67 68 70 72 73 74 78 81 79 78 82 84 79 70 78 80 92 85 75 77 77 68 56 62 69 70 72 71
63 62 62 69 74 75 77 79 79 79 80 81 85 86 83 77 73 74 78 80 82 81 79 79 77 78 92 91 84 74 96 96 90 85 82 75 77 76 71 69 76 81 83
67 64 68 77 82 82 82 84 84 83 86 94 93 92 95 92 81 88 93 96 94 90 94 91 87 84 91 95 93 88 89 100 100 93 92 88 81 79 79 77 84 87 88
68 68 69 81 83 84 84 81 79 78 84 87 89 91 88 88 90 92 96 91 89 97 100 100 99 99 98 98 99 98 95 100 100 100 97 95 94 84 84 87 91 94 94
60 66 69 78 88 87 89 96 96 89 85 90 86 83 80 87 90 93 94 97 97 99 100 100 100 100 100 100 100 100 100 100 100 100 100 100 99 98 97 94 94 94 97
59 70 74 73 83 92 96 95 98 97 99 96 97 91 82 84 94 99 99 98 97 95 99 100 100 100 99 100 100 100 100 100 100 100 100 100 99 99 99 99 98 98 97
51 62 73 75 76 82 99 98 96 92 96 98 98 90 77 86 87 89 89 97 100 100 98 100 100 100 100 100 100 100 100 100 100 100 100 100 99 99 99 98 98 99 98
56 55 57 65 75 82 84 97 100 100 100 99 100 92 82 89 90 88 95 98 100 99 100 100 100 100 100 100 100 100 100 100 100 100 99 99 99 98 98 98 98 98 98
57 62 70 81 78 84 91 96 97 98 98 99 100 94 91 100 99 95 85 95 99 100 100 100 100 100 99 100 100 100 100 99 100 100 99 99 98 98 98 98 98 98 97
68 68 68 79 84 92 93 94 100 99 98 98 99 99 93 99 100 100 91 87 96 99 99 100 100 100 99 100 100 100 100 100 100 100 100 99 98 98 98 98 97 97 97
76 78 81 84 89 94 95 97 99 99 98 98 100 100 98 96 96 97 95 85 92 98 99 99 99 98 98 100 100 100 100 100 100 100 100 99 98 98 98 97 97 97 97
77 84 90 90 92 96 98 94 92 94 96 98 100 100 100 100 100 100 97 95 96 98 99 98 96 97 100 99 100 100 100 100 99 99 100 100 98 98 98 97 97 97 96
82 90 97 96 96 99 100 98 97 97 98 98 98 98 100 100 100 100 98 98 99 98 99 98 98 98 99 97 98 98 100 98 100 100 100 100 98 98 97 97 96 97 96
99 100 100 100 100 100 99 98 98 96 98 97 97 98 100 100 100 100 99 100 100 100 100 99 99 98 98 97 98 98 97 97 99 100 99 100 98 98 97 97 97 96 96

GFSGL_925_rhum_165.txt.gz
RH
33 35 35 35 36 35 36 37 41 45 47 49 54 60 64 67 66 64 56 51 82 86 84 85 84 85 83 75 76 86 97 100 97 90 94 98 94 93 85 84 77 68 71
40 41 40 40 40 39 39 38 39 40 44 45 49 56 59 64 67 67 64 57 52 70 84 87 85 84 83 76 68 75 87 92 99 92 97 99 94 87 84 78 71 63 61
42 42 42 41 41 42 42 42 41 43 44 42 42 45 51 60 66 68 68 66 60 52 56 80 83 85 83 78 64 65 74 82 82 94 92 99 94 89 83 79 70 61 56
42 42 42 42 44 43 42 43 43 43 44 44 43 46 50 57 66 70 71 70 67 61 53 55 70 83 82 79 67 59 60 70 72 78 81 87 87 80 85 82 75 61 49
46 46 47 48 48 47 46 46 45 45 47 48 47 45 50 61 64 67 70 72 72 69 64 57 55 62 74 79 72 60 53 48 55 67 71 78 77 76 80 74 68 54 44
50 52 52 53 53 53 53 54 52 50 48 48 48 48 49 54 58 61 69 74 74 74 72 65 58 56 63 71 70 63 56 49 45 62 62 59 57 52 51 56 60 58 45
54 56 56 56 55 55 55 54 54 54 53 54 57 58 58 59 58 59 62 73 74 74 74 72 65 58 56 62 65 66 79 68 55 49 54 53 56 41 42 51 59 58 52
56 58 58 60 61 60 60 59 58 57 59 62 66 68 66 64 65 67 69 74 78 77 78 76 73 68 61 58 60 63 72 69 74 75 54 48 49 50 50 47 46 53 50
57 58 57 59 60 59 59 59 59 59 58 56 57 59 60 56 59 62 68 72 73 74 74 76 75 72 68 63 65 65 69 68 66 59 52 46 41 46 55 57 59 64 55
60 61 60 60 59 58 59 59 60 60 60 58 57 58 62 62 62 64 66 70 73 71 70 72 72 70 67 67 74 68 81 70 69 64 59 57 49 55 64 62 58 65 60
61 59 58 58 58 57 60 60 61 62 62 60 59 58 60 63 63 65 68 69 73 76 75 72 70 74 73 72 84 87 72 64 66 65 61 60 66 68 78 68 56 50 49
62 59 58 59 61 63 64 65 68 68 70 70 71 68 65 68 68 66 69 72 75 80 75 73 74 78 81 79 78 89 89 86 83 74 74 76 78 76 60 60 56 53 54
49 59 56 59 71 78 79 79 80 80 81 81 85 86 82 78 76 73 74 76 78 80 78 77 76 76 78 82 82 83 86 100 99 92 85 80 68 67 68 72 66 68 66
44 54 62 63 74 80 82 82 82 83 85 88 92 95 91 83 79 82 86 88 87 89 90 88 84 81 79 81 88 86 89 96 100 98 90 82 75 80 89 79 75 74 81
44 45 53 65 69 81 83 84 86 86 84 86 88 94 99 99 85 96 100 99 98 98 99 98 99 95 95 96 95 91 91 91 100 98 98 90 84 89 96 82 83 88 95
53 46 49 60 68 72 84 84 83 80 78 83 89 91 84 86 87 91 93 94 98 100 99 96 98 96 100 100 100 99 99 100 100 100 100 100 100 99 99 98 96 89 97
59 58 56 68 73 75 78 90 98 90 89 85 80 93 95 83 79 84 96 99 98 99 100 99 100 100 100 99 98 100 99 99 100 100 100 100 100 100 99 99 100 98 99
50 51 59 59 74 80 80 82 93 100 99 96 85 77 85 96 91 88 92 92 92 94 92 93 96 100 100 100 100 100 100 100 100 100 100 100 100 100 99 98 98 97 98
56 56 55 57 57 60 71 84 99 100 100 100 98 96 90 89 94 91 94 98 95 96 99 100 99 100 100 100 100 100 100 100 100 100 100 100 100 100 99 99 98 99 98
51 55 67 73 73 77 79 87 100 99 97 95 94 95 100 100 100 100 96 98 89 93 97 100 99 99 99 100 100 100 100 100 100 100 100 99 99 100 99 99 99 98 98
60 64 76 83 84 84 86 94 96 100 90 90 91 95 99 100 98 98 100 100 95 85 92 99 100 99 99 99 99 100 100 100 100 100 100 99 100 100 100 99 99 99 98
67 73 78 84 84 90 92 93 100 99 95 89 86 91 97 99 100 99 100 98 93 84 86 96 100 99 99 99 100 100 100 100 100 99 99 99 100 100 99 100 100 98 98
79 86 88 88 89 94 95 96 98 97 91 87 91 95 97 98 100 100 99 97 98 97 87 92 98 99 98 98 100 100 100 100 100 100 99 99 99 99 99 99 99 98 98
84 89 93 92 94 99 99 100 100 100 93 87 91 94 96 98 97 99 99 99 100 100 100 100 99 99 98 96 98 100 100 100 100 99 99 100 98 99 99 100 98 98 98
92 98 100 100 100 100 98 98 98 96 91 91 92 93 93 95 98 99 99 99 99 100 100 100 100 99 98 97 98 99 100 99 93 96 99 100 99 98 98 98 98 98 97
100 99 98 98 97 97 96 96 97 97 94 92 90 91 91 91 90 94 99 99 99 100 100 100 99 98 100 99 98 97 100 100 95 95 97 100 99 100 98 98 97 98 97